This is the latest recevied weather packets stored in our database for station/object SR2WXM. If no packets are shown the sender has not sent any weather packets the latest 10 day(s).
| Time | Temp. | Humidity | Pressure | Rain* | Wind** | Luminosity | Snow |
|---|---|---|---|---|---|---|---|
| 1777493704 | 0.56° C | 71% | 1028.1 hPa | 0 mm | - | - | - |
| 1777492804 | 1.67° C | 71% | 1028.1 hPa | 0 mm | - | - | - |
| 1777491902 | 2.78° C | 58% | 1028.1 hPa | 0 mm | - | - | - |
| 1777491003 | 2.78° C | 61% | 1028.1 hPa | 0 mm | - | - | - |
| 1777490103 | 3.89° C | 59% | 1028.1 hPa | 0 mm | - | - | - |
| 1777489204 | 3.89° C | 52% | 1027.7 hPa | 0 mm | - | - | - |
| 1777488303 | 5° C | 49% | 1027.7 hPa | 0 mm | - | - | - |
| 1777487403 | 5° C | 47% | 1027.7 hPa | 0 mm | - | - | - |
| 1777486502 | 6.67° C | 44% | 1027.4 hPa | 0 mm | - | - | - |
| 1777485604 | 7.78° C | 42% | 1027.4 hPa | 0 mm | - | - | - |
| 1777484704 | 7.78° C | 41% | 1027.4 hPa | 0 mm | - | - | - |
| 1777483803 | 8.89° C | 40% | 1027.4 hPa | 0 mm | - | - | - |
| 1777482903 | 10° C | 35% | 1027.4 hPa | 0 mm | - | - | - |
| 1777482002 | 10° C | 34% | 1026.7 hPa | 0 mm | - | - | - |
| 1777481104 | 10° C | 36% | 1026.7 hPa | 0 mm | - | - | - |
| 1777480203 | 10.56° C | 35% | 1026.7 hPa | 0 mm | - | - | - |
| 1777479302 | 10.56° C | 34% | 1026.7 hPa | 0 mm | - | - | - |
| 1777478402 | 10° C | 35% | 1026.7 hPa | 0 mm | - | - | - |
| 1777477503 | 11.67° C | 34% | 1026.7 hPa | 0 mm | - | - | - |
| 1777476602 | 11.67° C | 32% | 1027.4 hPa | 0 mm | - | - | - |
| 1777475703 | 11.67° C | 34% | 1027.4 hPa | 0 mm | - | - | - |
| 1777474803 | 10.56° C | 36% | 1027.4 hPa | 0 mm | - | - | - |
| 1777473903 | 10.56° C | 35% | 1027.4 hPa | 0 mm | - | - | - |
| 1777473003 | 10° C | 37% | 1027.4 hPa | 0 mm | - | - | - |
| 1777472103 | 11.67° C | 35% | 1026.7 hPa | 0 mm | - | - | - |
* Rain latest hour (hover to see other rain measurements)
** Current wind speed in m/s (hover to see current wind gust speed)